Theta_e
322 322 321 319 321 321 319 321 321 322 322 324 327 329 329 329 330 331 329 328 328 328
317 317 317 318 318 319 320 320 320 320 319 321 322 322 322 322 324 327 326 327 328 328
313 313 314 313 313 313 313 313 314 315 315 315 316 317 317 318 319 318 320 324 324 325
310 311 312 312 312 313 313 313 313 314 313 313 313 313 313 313 315 315 315 317 318 318
309 310 310 310 311 312 310 311 312 312 312 312 312 311 311 311 311 311 311 312 312 313
308 306 307 308 309 309 308 307 307 308 308 308 308 307 307 307 307 304 304 305 306 307
305 306 306 306 305 305 305 304 304 304 305 305 305 305 305 305 302 302 302 303 304 305
305 306 304 304 303 303 303 303 303 302 302 302 303 304 302 301 301 300 299 300 301 302
304 304 302 301 301 300 300 300 300 300 300 299 302 301 302 303 300 299 299 298 300 301
302 301 300 301 300 299 298 297 298 298 298 299 299 300 299 301 300 299 298 300 300 300
299 299 299 299 298 298 297 297 297 298 299 299 301 300 298 299 300 299 299 300 300 300
298 298 298 297 297 297 297 298 299 300 301 302 300 299 298 298 301 300 301 302 301 301
299 299 299 299 297 297 298 300 301 301 301 302 303 300 298 299 301 300 300 300 301 301
299 299 299 296 299 301 302 301 299 299 302 303 304 304 299 298 301 301 301 301 301 302
Wind_Speed
7 7 5 6 6 6 6 4 7 7 6 7 6 6 6 3 4 4 4 6 6 5
9 11 9 8 6 5 6 5 7 8 8 7 7 6 6 4 5 4 4 6 5 6
8 9 9 8 8 8 7 4 3 5 6 6 6 6 5 4 5 6 6 6 6 7
7 8 8 7 7 7 7 8 8 7 6 6 6 7 6 7 7 7 7 6 7 8
8 8 8 6 6 6 6 7 7 7 7 8 8 7 7 7 9 8 8 9 8 9
8 7 6 5 6 7 6 6 7 7 7 7 7 8 7 7 7 7 9 10 11 11
5 4 6 6 7 6 6 6 6 6 6 7 7 8 9 8 8 9 8 9 11 12
5 7 6 5 5 5 5 5 5 5 6 6 7 8 9 10 10 10 11 11 12 13
6 6 6 5 5 5 5 6 6 6 6 7 7 11 13 13 9 9 11 11 12 12
7 7 6 6 5 5 7 6 7 7 7 8 9 14 15 16 10 10 11 13 13 13
8 7 6 6 7 6 5 6 6 7 9 9 9 14 15 16 12 11 13 13 13 14
8 6 7 7 7 6 6 7 8 10 12 13 13 14 17 15 12 12 13 13 11 13
9 8 8 9 7 5 6 10 8 11 11 13 13 13 12 13 9 11 10 10 12 14
8 7 7 7 6 9 9 9 8 10 11 13 12 12 15 15 8 9 10 9 9 9
Wind_Direction
63 74 69 60 54 60 58 35 20 35 36 28 19 14 9 346 321 297 268 259 239 238
47 57 54 39 43 63 68 20 8 22 15 7 2 354 346 324 310 304 280 262 256 249
40 40 35 35 28 23 17 48 58 32 16 359 343 332 331 306 297 301 294 292 300 295
54 47 42 36 24 13 5 2 1 357 355 341 322 318 317 307 296 288 286 276 278 283
52 44 41 23 15 10 354 352 354 5 7 2 354 356 352 344 341 334 332 329 317 305
49 36 18 359 14 28 23 9 4 8 359 353 346 341 327 325 340 5 341 334 328 320
16 20 34 47 35 30 15 5 1 356 341 325 334 321 307 309 322 316 311 307 306 307
11 60 53 36 26 11 9 353 338 318 309 312 307 294 302 298 299 300 301 296 293 289
29 32 29 13 353 4 342 317 317 311 293 285 282 282 284 284 279 282 285 286 277 276
29 20 4 351 357 345 333 314 293 283 283 281 273 270 274 273 275 275 274 274 275 277
15 354 334 351 335 320 298 307 301 295 289 280 281 275 276 275 281 270 265 263 263 269
338 334 350 328 316 319 321 312 304 301 299 291 275 271 277 282 283 271 273 268 264 266
329 335 329 318 312 299 301 304 301 299 291 281 281 273 274 292 297 286 280 269 267 262
333 329 322 309 306 310 310 314 300 303 305 306 310 308 299 300 305 298 285 279 277 270